Theta_e
305 305 306 308 309 309 311 313 314 314 315 315 314 312 312 311 311 314 315 315 316 315 315 316 315 315 315 316 316 317 318 318 318 318 319 319 319 322 319 325 340 342 343 350 350 349 348 348 349 349 348 349 350 349 349 349 347 346 345 345 345 344 344 343 343 344 343 344 344 343 343 344 344 343 342 340 338 337 337 337 337 338 338 338 342 343
306 305 306 307 309 310 310 311 312 313 314 315 314 313 312 312 311 314 315 314 316 315 314 316 315 315 315 316 316 317 317 317 318 318 319 319 318 321 318 321 336 341 346 351 351 350 350 349 350 350 350 350 350 349 348 348 348 346 345 344 344 344 344 344 343 344 343 343 344 343 343 344 344 343 342 341 338 337 337 337 338 339 338 340 343 343
305 305 305 307 309 310 311 310 310 312 314 314 314 313 311 313 313 314 315 315 315 314 314 316 314 314 316 316 317 317 317 318 319 318 319 319 318 320 318 320 333 342 348 352 351 351 350 350 350 350 351 350 349 349 348 348 347 345 344 344 344 344 344 344 343 344 343 342 343 343 343 344 344 343 342 342 340 338 338 338 338 339 340 342 343 343
305 306 306 307 308 310 311 311 311 311 313 313 313 312 311 313 313 311 313 315 316 315 315 316 314 314 316 316 317 317 317 318 318 318 319 319 320 321 320 320 331 343 351 353 351 350 350 350 350 349 351 350 349 349 348 348 347 345 344 344 344 344 344 344 344 344 343 342 342 342 343 343 343 343 342 342 341 339 338 338 338 340 341 342 343 343
304 306 306 306 308 310 311 312 311 311 312 313 313 313 312 313 314 312 314 315 315 315 316 316 312 312 315 316 316 317 317 317 318 318 318 320 321 322 323 322 329 342 350 352 350 349 349 349 349 349 350 350 349 349 348 348 347 345 345 344 345 344 343 344 344 343 343 342 342 342 343 343 343 343 342 342 342 340 339 339 340 341 342 343 344 343
303 305 307 307 307 309 311 312 312 311 311 312 313 314 313 315 315 314 315 314 312 311 314 314 310 310 314 315 316 317 317 316 317 318 318 319 320 320 324 324 330 344 348 349 351 350 349 349 349 348 349 350 349 349 349 348 347 346 345 344 345 344 343 343 344 343 343 343 342 343 343 343 343 343 343 343 343 341 340 342 342 343 343 344 344 343
304 304 305 307 307 308 311 312 313 312 312 312 313 314 315 316 316 315 314 312 309 309 314 315 310 309 312 313 317 317 316 316 316 318 318 319 320 319 322 321 329 347 348 346 352 352 350 350 349 348 349 349 349 348 348 348 347 346 345 344 344 343 343 343 344 343 343 342 342 343 343 342 342 342 342 343 342 341 342 343 344 343 344 344 343 342
305 304 304 306 307 308 310 312 313 313 312 312 313 313 314 315 315 315 314 311 311 311 313 314 311 309 309 312 317 317 316 317 316 317 318 319 319 318 323 321 327 344 346 344 352 354 351 351 350 348 348 348 348 349 348 348 348 347 345 344 343 344 343 343 343 343 342 342 342 342 343 342 342 342 342 343 343 341 342 344 344 343 344 344 342 341
305 305 304 305 308 308 310 312 312 313 313 313 313 313 313 314 315 315 314 311 312 312 310 311 311 309 308 312 318 317 315 316 316 317 317 318 320 319 322 323 326 339 344 342 346 350 352 352 350 349 348 347 348 349 349 348 348 347 345 344 344 343 343 343 342 343 342 341 342 342 342 343 342 342 342 343 343 342 343 344 344 343 343 342 341 340
305 305 305 305 307 309 310 311 312 313 313 313 313 313 314 314 315 316 315 311 311 312 310 309 309 309 308 310 314 315 314 315 317 317 317 317 319 320 322 325 328 334 340 343 342 345 351 353 352 350 348 347 348 349 349 348 348 347 346 345 344 344 344 343 342 342 342 341 342 342 342 342 342 341 342 342 343 342 343 344 344 343 341 341 340 339
305 306 306 306 307 309 310 311 312 313 313 313 313 313 313 314 314 315 315 311 311 312 310 309 309 309 308 309 312 315 315 317 318 317 318 318 317 320 322 324 329 331 336 341 341 341 347 349 350 350 348 347 349 350 349 348 348 347 347 345 345 345 344 343 342 342 341 341 341 341 342 341 341 340 341 342 342 342 343 344 344 343 340 339 340 339
304 306 306 306 307 309 310 311 312 313 313 314 313 313 312 313 313 313 312 312 313 312 309 310 311 310 308 309 313 318 319 318 319 318 318 318 317 320 322 322 327 330 333 339 340 340 345 348 349 348 347 348 350 350 349 349 348 348 347 346 345 345 344 343 342 342 341 341 340 340 341 341 340 339 340 342 342 341 342 343 343 341 336 336 339 338
304 305 306 307 307 308 310 310 312 313 313 314 313 312 313 313 314 314 313 313 313 311 309 311 311 309 308 311 315 318 319 319 319 319 319 318 319 320 321 323 327 330 334 338 339 340 345 349 349 346 345 348 351 350 349 349 348 347 347 346 346 345 343 342 342 341 341 341 340 340 340 340 340 339 340 341 341 340 340 340 340 337 333 335 338 338
305 306 306 307 308 307 309 310 312 312 313 313 312 312 313 314 316 317 314 313 313 310 310 311 311 309 309 312 317 318 319 320 320 320 319 319 320 321 322 323 328 332 335 336 337 341 346 349 349 347 346 349 351 350 349 350 349 348 347 347 346 344 342 341 341 341 340 340 340 339 339 339 339 339 339 340 340 340 338 338 339 336 334 338 339 337
305 307 307 307 308 307 309 310 312 313 312 313 313 313 313 313 315 316 313 313 313 310 309 311 312 310 308 313 318 319 320 321 320 320 321 321 321 322 322 323 327 330 332 334 336 341 349 351 350 350 348 349 351 350 350 350 348 348 347 347 345 344 342 341 341 341 341 340 340 339 338 339 339 338 339 339 339 340 339 337 338 336 337 339 337 337
306 308 307 308 308 308 310 311 311 313 313 314 314 313 313 313 313 313 313 312 312 312 311 311 311 312 313 318 319 318 320 321 320 320 320 321 321 321 322 323 326 328 329 333 336 340 350 353 351 351 349 348 350 350 350 350 348 348 348 346 345 343 342 341 342 341 341 340 340 339 339 339 339 339 340 340 341 342 341 339 337 336 337 337 336 338
306 308 308 307 308 309 310 312 312 312 314 314 313 312 314 314 314 313 313 313 314 314 313 310 310 311 314 318 318 319 321 320 320 320 320 321 322 321 324 324 325 328 328 331 336 340 349 353 351 351 349 347 348 349 350 349 348 348 347 345 345 343 342 342 342 342 341 340 340 340 340 340 341 341 341 342 342 341 341 340 337 336 336 336 337 339
306 307 308 307 308 309 310 311 311 312 313 313 312 313 313 315 315 314 314 315 315 315 313 310 309 310 311 314 318 319 320 320 320 319 320 322 322 322 324 326 326 328 329 332 336 340 347 352 352 351 349 348 348 348 348 349 348 348 346 344 344 343 343 343 342 342 341 341 341 341 340 341 342 342 342 343 342 340 340 340 337 336 336 336 337 339
307 307 308 306 308 309 309 311 311 311 312 313 313 313 313 314 315 314 315 316 317 316 314 311 309 310 310 312 316 318 319 321 320 320 321 321 321 323 323 325 327 328 332 335 336 341 349 353 353 351 349 348 347 347 348 348 348 347 345 344 343 343 344 343 342 341 341 341 342 341 340 341 342 342 341 341 341 340 340 339 337 337 336 335 336 337
308 308 309 307 307 310 309 311 312 312 312 312 313 314 313 314 314 314 315 314 314 316 315 313 311 311 312 314 316 319 320 321 321 321 323 321 322 324 324 326 328 331 336 336 335 345 353 353 352 350 349 348 346 346 347 347 346 346 345 344 344 344 344 343 341 341 342 342 341 340 340 341 341 340 339 340 340 339 339 337 336 337 336 335 336 337
309 310 311 309 307 310 310 310 312 312 313 312 312 313 312 313 314 315 314 312 312 314 314 315 314 311 313 318 319 318 321 322 321 322 325 324 324 326 326 329 331 334 339 336 339 350 354 352 351 349 348 347 346 347 347 346 345 345 345 345 345 345 344 342 341 341 342 342 341 340 339 340 341 339 337 338 338 337 337 336 335 337 337 336 337 338
310 310 312 311 309 309 310 310 311 312 313 313 312 313 312 312 313 314 315 312 311 312 312 315 315 313 315 320 320 320 322 321 320 322 324 324 324 327 330 331 334 338 340 338 343 352 353 350 349 348 347 346 345 346 346 345 344 344 344 345 345 344 343 342 341 341 342 342 340 340 340 340 340 339 337 337 337 337 337 336 335 336 337 337 337 338
310 310 312 312 310 309 310 311 312 313 313 313 313 313 313 313 312 313 315 314 311 311 311 312 314 315 318 321 323 324 323 320 320 322 322 323 326 329 331 333 337 340 340 341 347 351 351 349 348 346 346 346 345 345 345 344 344 343 344 345 345 343 343 342 341 341 341 341 340 339 340 339 339 338 338 338 337 336 337 336 336 336 336 336 336 336
311 311 312 312 311 308 310 311 311 313 313 313 313 313 314 314 313 313 315 315 313 312 311 312 314 316 320 324 327 327 324 321 323 323 321 324 329 331 332 333 337 340 342 345 348 350 349 347 345 344 343 345 344 344 345 344 343 343 344 345 344 343 342 341 340 340 340 340 339 338 338 338 337 337 338 338 337 336 336 336 336 336 335 335 336 336
312 312 312 313 312 310 311 312 311 313 313 313 314 313 313 314 314 315 316 316 315 312 311 312 312 314 320 327 327 325 323 321 322 323 323 327 330 330 331 333 334 339 344 346 348 348 347 345 344 342 342 344 343 343 344 343 342 343 344 343 342 342 341 340 340 340 340 339 338 337 336 336 336 336 336 337 336 336 336 336 336 335 334 335 335 335
313 314 313 313 313 311 311 312 312 312 313 313 314 314 314 314 314 315 315 315 316 313 311 311 312 315 322 328 326 325 326 325 325 325 325 331 334 335 337 338 339 342 344 345 347 348 346 345 343 342 342 341 341 342 343 342 342 343 343 342 341 341 341 340 339 340 339 338 338 337 336 335 335 335 336 336 336 336 335 335 334 334 334 334 334 333
313 315 315 314 313 311 311 312 311 312 312 312 313 313 314 315 315 316 316 316 315 313 312 315 316 316 318 322 324 326 328 328 331 334 334 337 341 342 344 345 345 345 344 345 347 346 345 344 343 342 341 340 340 341 342 342 342 342 342 342 341 340 340 339 339 339 339 338 337 336 336 335 334 335 336 335 335 335 334 334 333 333 333 333 333 333
313 315 315 314 315 313 311 311 311 312 312 312 313 314 314 315 316 316 317 317 316 315 316 322 324 321 322 329 331 328 327 329 331 335 337 340 343 343 345 345 345 345 345 345 346 344 343 343 342 342 341 340 341 342 341 341 342 342 342 341 340 340 340 339 339 339 339 338 337 336 336 335 334 335 335 335 334 334 334 334 333 332 332 332 332 331
314 314 314 315 315 314 311 311 311 312 312 313 314 315 314 315 317 317 318 319 322 324 325 329 331 331 333 339 341 338 336 337 338 337 336 340 343 342 343 344 344 344 344 343 343 342 341 341 341 342 341 341 342 342 342 341 342 342 341 340 341 341 340 340 339 338 338 337 336 335 336 336 336 335 335 334 333 333 333 333 332 331 331 331 330 330
315 315 316 316 315 313 312 313 312 311 313 313 314 315 315 316 317 316 319 322 325 329 331 330 331 333 334 337 341 342 340 339 341 342 339 339 343 342 342 343 343 343 343 341 340 340 339 340 341 342 342 342 343 343 342 342 342 342 341 341 341 340 340 340 339 339 338 337 336 335 335 336 336 335 334 334 332 332 332 332 331 331 331 330 330 330
316 317 317 317 316 315 313 314 313 312 313 313 314 315 315 316 316 317 320 322 321 323 327 328 329 331 333 336 338 337 336 337 339 342 340 340 342 342 342 342 342 341 340 339 339 339 339 340 341 341 341 342 343 343 343 343 342 342 342 341 341 340 340 340 339 339 338 337 336 336 335 336 336 335 334 333 332 332 332 331 331 331 331 330 329 329
317 317 317 318 317 317 316 315 314 313 314 314 315 316 315 316 317 320 323 323 322 321 323 327 329 331 334 335 336 334 333 333 335 339 342 342 340 340 341 341 340 339 338 338 338 338 338 340 341 341 342 343 343 343 343 343 342 342 341 341 341 341 340 339 339 339 338 337 337 336 336 336 336 335 334 333 333 332 332 331 331 331 330 330 329 329
317 317 318 319 318 318 316 315 314 315 315 315 315 315 317 317 316 320 323 324 325 325 325 328 329 331 333 334 336 336 335 333 333 336 338 341 342 342 341 340 339 338 338 338 338 339 339 341 342 342 343 343 344 344 343 342 342 341 341 341 341 340 339 339 339 338 338 337 337 336 336 336 336 335 334 333 333 332 331 331 331 331 330 330 329 329
317 319 319 319 319 319 317 316 315 315 316 317 319 318 317 317 318 322 324 325 326 325 325 328 329 329 332 335 336 337 337 336 336 337 337 339 342 343 342 339 338 339 339 339 339 339 340 341 342 343 342 342 342 342 340 341 342 341 341 342 341 340 339 339 339 338 338 337 336 336 336 335 335 335 334 333 333 332 332 331 331 330 330 330 329 329
317 318 319 319 319 319 320 319 316 316 317 320 324 323 317 317 323 328 329 329 329 327 325 328 331 330 332 335 336 336 335 335 335 335 336 338 340 341 339 338 339 340 339 339 339 341 341 342 343 342 338 335 336 334 333 337 340 341 341 341 341 340 339 338 338 337 337 336 336 335 335 335 335 334 334 333 332 331 331 330 330 329 329 329 328 328
317 318 318 318 318 319 320 318 316 319 322 322 324 323 320 322 327 329 331 332 331 329 328 330 331 330 332 334 334 333 334 335 335 334 334 336 339 340 340 340 340 341 340 340 341 342 343 343 341 337 333 332 333 332 331 334 337 339 341 341 340 339 339 338 337 337 336 336 335 334 334 334 333 333 333 332 331 330 330 329 329 329 328 328 327 326
316 318 318 319 320 320 319 319 321 324 326 325 325 325 325 326 327 328 330 331 330 329 329 330 330 331 333 332 330 330 331 333 336 336 333 333 336 338 339 340 341 341 341 341 342 343 343 341 337 334 332 332 332 332 332 333 333 336 340 340 339 338 338 337 337 336 336 336 335 334 334 333 333 333 333 332 331 330 329 329 329 328 328 327 327 326
316 318 320 321 321 318 319 323 325 325 326 325 325 327 326 326 327 327 329 331 329 327 328 329 330 332 334 333 331 331 331 334 339 338 333 332 335 336 336 337 339 341 341 341 342 342 341 338 335 333 333 333 333 332 332 332 331 334 338 339 338 338 337 337 337 336 335 335 335 334 334 333 333 333 332 331 330 330 329 329 328 327 327 326 326 325
318 319 320 321 320 319 321 324 324 325 325 325 326 326 324 325 328 325 327 331 330 327 327 329 330 332 334 333 333 334 335 337 341 338 332 332 334 334 334 336 337 338 340 341 341 341 340 337 335 335 334 333 333 333 332 332 332 334 338 339 338 337 337 337 336 336 335 334 334 334 334 333 333 332 331 331 330 329 329 328 327 327 326 325 325 324
320 320 320 320 321 320 321 323 323 324 325 324 325 324 322 326 328 324 325 329 329 328 328 330 331 332 332 332 332 334 336 337 338 335 332 331 332 333 334 335 335 336 338 339 339 340 339 336 333 334 334 333 334 334 334 334 335 336 338 338 337 337 337 336 336 336 335 334 334 334 334 334 333 332 331 330 330 329 328 328 327 326 325 325 323 322
320 320 320 320 320 321 322 324 324 324 324 323 324 324 323 325 325 323 326 328 328 327 327 330 331 331 331 332 333 334 334 334 333 333 331 331 331 332 334 334 333 334 335 335 335 336 336 333 331 332 333 333 333 333 333 333 333 335 337 337 337 337 336 335 335 335 334 334 334 333 334 333 333 332 331 330 329 329 328 328 327 325 324 324 323 321
320 320 320 319 320 321 322 323 323 323 323 323 324 325 324 325 326 326 327 327 326 327 327 328 329 331 331 332 333 333 333 333 332 332 332 332 332 333 334 333 333 333 332 331 331 331 331 330 330 331 332 332 332 331 330 331 331 333 335 337 337 336 335 334 334 333 333 333 332 332 333 332 331 331 330 329 329 328 327 326 325 324 323 323 322 321
320 321 320 318 319 321 323 323 323 324 324 324 325 326 327 327 327 327 326 325 325 327 327 327 328 330 332 332 333 333 333 333 332 332 332 333 332 332 333 333 333 333 332 331 329 329 328 328 328 328 329 330 330 329 330 331 331 332 334 335 336 336 334 333 333 333 332 332 332 332 332 331 331 330 329 328 328 327 326 325 324 323 322 321 321 320
322 322 320 316 317 322 323 322 324 325 324 324 326 326 327 326 326 326 325 324 325 325 326 325 325 327 331 334 334 334 333 332 332 331 332 332 331 331 332 332 332 333 332 332 331 331 331 331 330 330 330 330 330 329 330 331 331 332 333 334 335 335 334 333 333 332 332 332 332 331 331 330 330 329 328 327 327 326 325 324 323 322 322 321 320 320
322 322 321 319 320 323 323 323 324 326 325 324 324 325 325 324 324 324 323 323 323 323 323 324 323 323 327 331 333 333 333 332 331 330 329 330 330 330 331 331 332 333 333 333 333 332 333 333 333 332 332 332 332 332 332 332 332 332 333 333 335 334 334 333 333 333 332 331 330 330 329 329 328 328 326 326 325 325 324 324 323 322 321 320 320 320
321 321 322 323 323 323 324 324 325 324 323 322 322 322 322 322 322 323 322 322 322 322 322 321 321 320 323 327 330 331 330 330 329 328 328 328 328 328 329 330 331 331 331 332 332 333 333 333 332 332 332 332 332 332 333 333 334 334 333 333 334 335 334 334 333 332 331 330 329 328 327 327 326 326 326 325 324 324 324 323 323 322 321 320 320 319
321 321 323 323 322 322 323 324 324 323 322 320 320 320 320 320 320 321 323 322 321 322 322 320 319 319 320 322 327 329 328 328 328 327 327 327 327 327 328 328 329 329 330 330 330 331 331 331 330 330 330 330 330 331 331 331 332 332 332 332 332 332 332 332 331 329 328 328 327 327 326 325 324 324 324 324 323 323 323 323 322 321 321 320 319 319
321 321 322 322 321 321 322 322 322 322 321 319 319 320 319 319 319 319 321 322 321 322 321 319 320 322 321 321 323 327 327 327 327 327 327 327 326 326 326 327 328 328 328 328 329 328 328 329 328 328 328 328 329 329 330 329 329 329 330 330 330 330 330 330 328 326 325 325 325 324 324 323 323 322 322 322 322 321 321 322 321 320 320 319 319 318
322 321 321 321 320 320 320 321 321 321 320 319 319 319 318 318 318 318 318 320 320 321 321 321 322 323 323 323 324 324 324 325 327 327 326 326 326 325 326 326 327 327 327 327 327 327 327 327 327 327 327 327 328 328 328 328 328 328 328 329 329 329 328 327 326 325 323 323 323 322 322 321 321 320 319 319 319 319 319 319 319 319 318 318 317 317
321 321 319 319 319 319 320 321 322 321 319 318 317 318 317 317 317 317 317 317 318 319 321 322 322 322 323 324 325 324 323 324 325 325 326 326 326 326 326 326 326 326 326 326 326 326 326 326 326 326 326 326 326 326 326 326 327 327 327 327 327 327 325 325 324 323 322 321 321 321 320 319 318 317 317 317 317 316 315 315 316 316 316 315 315 315
320 321 320 320 321 321 322 322 321 319 318 317 316 316 317 315 315 316 316 316 317 318 319 320 321 321 322 323 323 324 325 324 324 325 325 325 326 326 327 326 326 326 326 326 325 325 325 324 325 325 325 324 324 324 324 324 324 325 325 325 325 324 323 323 322 321 320 319 318 318 317 316 315 314 314 314 315 314 313 312 312 313 313 313 313 313
Wind_Speed
11 9 10 12 13 16 19 20 19 17 16 17 16 15 16 15 12 16 18 17 20 18 18 22 19 18 20 19 19 17 15 18 18 18 16 16 15 12 13 12 13 15 12 13 19 25 24 22 24 25 25 24 23 23 24 26 27 27 26 25 24 25 26 27 25 24 23 22 22 22 23 24 23 21 20 20 19 19 19 19 19 20 21 20 18 17
11 11 13 16 17 18 20 21 20 19 19 18 15 14 15 15 14 16 18 18 19 15 14 20 20 19 19 18 20 20 16 18 18 18 17 18 17 13 15 15 14 14 11 14 17 20 23 23 23 24 23 24 22 22 23 23 24 25 26 26 27 26 27 27 25 24 23 22 22 20 21 22 21 21 20 20 20 20 19 20 19 19 20 19 18 18
11 12 16 18 18 18 19 20 21 20 20 17 14 12 13 14 14 16 18 19 18 12 11 19 19 17 18 18 20 21 17 14 16 18 17 18 18 15 16 15 13 15 14 15 15 16 21 22 22 23 22 24 22 21 22 21 22 25 26 27 28 26 25 25 23 23 22 21 20 19 19 20 20 19 20 19 20 20 18 19 20 19 19 18 18 18
10 12 17 18 17 19 20 20 22 19 17 15 13 11 12 15 14 13 15 19 18 12 11 16 15 13 16 17 18 21 18 13 16 20 18 17 17 16 16 14 13 17 16 16 16 15 17 18 20 21 20 22 22 21 22 22 23 26 27 27 26 24 23 23 23 22 21 20 19 19 19 19 18 17 18 18 17 19 18 19 20 20 21 21 19 19
13 13 16 18 18 20 20 20 21 17 12 15 17 13 12 17 17 13 13 16 16 14 14 14 11 10 14 17 16 17 18 17 16 19 19 16 15 14 15 15 14 17 17 17 16 15 14 14 16 18 19 21 22 21 22 24 25 26 26 26 24 23 23 23 23 22 20 19 18 18 18 18 17 16 17 17 17 19 18 18 20 22 23 22 19 18
15 17 15 17 19 20 20 19 20 17 12 14 19 18 17 18 18 18 18 16 12 12 15 13 10 8 13 18 17 15 17 19 16 17 19 16 16 15 13 14 13 16 18 16 16 16 14 14 15 18 19 20 21 22 23 25 26 25 24 24 23 23 25 23 22 21 20 19 19 19 18 17 17 15 16 17 17 19 19 17 20 21 20 20 19 19
11 18 18 16 19 20 19 17 19 19 13 11 16 20 22 20 16 20 20 15 10 9 13 15 11 6 11 17 18 17 18 21 19 17 19 16 17 17 14 13 13 15 17 15 16 17 16 15 15 17 20 22 23 24 25 25 25 24 24 24 24 23 23 22 20 21 20 19 20 19 17 16 16 14 15 17 16 17 17 16 19 20 19 19 18 19
10 17 19 17 18 18 15 14 17 20 14 11 15 20 23 21 17 18 19 14 10 9 11 17 15 8 8 13 18 19 19 22 22 20 19 17 17 17 14 14 14 15 17 15 16 17 17 16 16 18 21 22 23 24 26 26 24 25 25 26 25 22 22 21 19 21 22 20 19 19 17 15 16 15 15 17 17 17 17 17 18 19 19 19 18 18
12 17 18 18 16 13 13 14 17 20 15 13 17 20 21 20 18 16 16 13 11 10 10 15 16 10 7 10 16 20 20 21 23 23 21 19 19 18 16 15 14 16 17 17 16 17 17 17 19 22 23 22 23 24 25 24 23 25 27 27 26 23 21 21 20 20 22 21 19 19 18 17 17 17 16 17 18 17 18 19 18 18 18 18 18 18
10 13 16 16 13 11 14 17 19 19 15 14 18 19 19 18 17 15 13 12 11 10 10 15 17 10 7 9 13 17 19 18 19 20 20 20 20 19 16 15 14 14 15 17 17 17 17 19 22 24 24 24 23 24 25 23 24 26 26 27 26 23 21 22 22 20 21 21 19 18 20 19 19 20 18 18 19 18 19 21 20 20 19 16 16 17
11 12 13 13 10 11 14 17 18 18 16 16 17 16 16 15 13 11 10 10 10 10 13 18 20 14 8 9 11 12 15 16 15 16 18 19 20 19 16 14 15 14 13 15 16 16 16 20 25 25 23 24 23 24 24 23 25 26 26 27 26 23 22 22 23 22 22 22 21 21 22 22 23 23 22 20 19 18 19 20 21 20 19 18 17 16
13 12 10 10 11 12 14 15 16 18 18 16 13 12 12 11 8 6 7 9 10 9 13 17 20 19 11 8 11 12 16 19 18 17 19 20 20 18 16 15 16 14 13 14 15 15 15 17 20 21 20 22 23 24 24 24 25 26 26 27 25 23 22 22 24 25 25 25 26 26 25 24 24 23 21 18 17 17 18 19 20 17 17 19 16 15
12 11 10 10 13 14 12 11 13 15 15 14 12 12 12 9 8 7 8 9 9 9 11 17 18 16 11 9 12 15 18 21 19 18 20 21 20 17 17 17 14 13 13 13 13 13 14 14 15 16 18 22 24 25 25 25 25 25 26 26 25 24 23 22 24 28 28 29 29 28 25 24 23 20 18 16 15 16 16 19 20 15 16 19 18 16
8 9 12 13 11 13 11 9 10 11 13 15 13 11 11 10 9 10 10 8 9 8 11 17 17 11 9 9 13 16 16 19 18 17 19 19 18 17 17 17 13 12 13 13 13 13 14 15 14 16 20 23 26 27 26 25 25 25 25 25 25 25 24 23 26 31 32 32 31 28 25 23 23 20 17 16 16 15 14 17 17 16 19 22 22 19
9 8 10 13 9 12 12 11 11 11 12 14 13 11 11 11 9 9 8 7 9 9 10 15 12 8 8 9 14 15 9 16 18 16 18 17 16 15 15 15 14 14 14 13 13 13 15 18 17 18 23 25 26 27 25 25 25 24 24 26 27 27 28 29 30 32 32 31 30 29 27 25 23 21 19 17 16 14 16 17 16 16 18 20 20 19
10 7 10 15 11 13 13 13 14 13 11 11 13 12 11 11 9 6 6 7 7 7 9 9 7 7 5 7 15 11 5 12 20 16 18 19 16 15 14 15 15 14 14 14 14 13 15 18 18 19 23 25 26 26 25 25 25 24 25 27 28 30 34 34 31 30 30 31 30 30 30 27 23 22 20 18 16 16 20 22 21 20 19 20 20 18
8 6 12 16 14 14 15 14 15 12 9 10 12 12 11 13 10 5 6 8 7 7 7 7 7 8 6 7 13 11 3 9 19 17 17 19 17 16 14 14 14 13 14 13 13 14 15 17 17 19 22 23 24 25 26 27 26 26 27 29 30 33 35 33 30 30 31 32 32 32 31 27 24 23 23 20 19 21 22 24 27 26 24 26 26 20
6 5 12 18 16 16 16 16 16 15 12 10 10 11 12 13 10 6 6 7 8 7 6 9 10 10 9 6 9 15 9 6 13 16 15 17 18 16 14 13 13 13 14 13 14 14 15 16 15 17 21 24 25 26 27 27 27 27 29 32 34 33 32 31 30 30 31 31 31 29 27 24 21 21 21 20 20 21 21 23 26 26 26 30 30 26
6 4 10 18 17 15 16 15 13 15 17 12 9 12 11 8 7 6 5 6 9 7 5 11 13 9 9 8 8 14 15 10 11 14 15 17 17 14 13 13 14 13 11 11 13 12 13 15 15 17 20 23 25 26 27 28 27 27 28 32 33 31 28 29 31 31 28 28 28 25 23 21 18 17 16 17 19 19 19 21 24 26 29 30 30 29
5 3 6 15 17 15 13 11 9 10 15 14 10 10 9 5 5 7 6 6 8 7 6 10 11 8 9 10 12 13 14 12 11 10 11 15 15 12 12 12 12 11 10 10 11 11 14 15 16 19 22 23 25 26 28 28 28 28 28 29 30 28 26 28 31 31 26 25 26 25 22 20 18 16 15 16 18 17 17 20 24 27 30 31 31 32
3 2 3 10 16 14 9 9 10 10 11 9 8 9 10 6 6 8 7 6 7 7 6 7 7 8 8 8 15 16 13 13 13 9 8 12 13 12 12 11 10 9 9 10 10 12 16 15 15 19 23 24 25 27 28 27 27 28 28 27 27 26 26 27 30 30 25 22 23 22 22 21 19 17 17 16 17 17 17 19 23 25 28 30 31 31
3 3 4 6 10 11 11 13 15 14 12 9 8 9 11 8 7 9 7 7 8 7 6 5 5 7 8 7 13 16 14 15 17 14 9 11 14 13 12 12 10 9 9 9 11 14 16 14 15 18 20 23 24 25 28 27 26 28 27 27 26 25 26 26 28 28 23 21 20 20 21 21 18 18 18 18 18 18 18 20 21 23 26 29 31 31
5 3 4 6 6 12 15 16 17 17 15 12 10 11 10 8 8 8 5 5 7 8 9 7 4 6 9 10 9 11 13 15 16 15 12 11 12 11 11 11 9 9 9 9 11 15 15 13 15 17 19 22 23 24 27 26 26 26 25 25 24 25 26 25 26 26 22 21 20 19 21 20 17 17 18 20 21 21 22 21 18 20 25 29 31 32
5 3 3 6 6 12 17 16 16 17 15 11 10 11 10 10 10 8 5 5 5 8 9 6 4 4 10 11 7 9 12 14 14 14 13 10 9 10 11 10 8 8 8 9 11 13 12 12 14 16 16 18 21 22 25 25 24 24 24 24 23 24 26 24 23 24 23 22 20 18 21 20 17 17 18 19 22 23 24 22 18 21 26 28 30 31
1 2 4 5 6 11 13 13 13 14 12 8 8 12 13 14 14 10 7 5 5 9 10 7 4 4 7 6 7 10 11 10 11 15 13 9 9 10 11 10 9 9 9 11 13 12 12 12 13 13 14 17 20 22 24 24 24 23 22 23 23 23 25 23 23 24 23 22 20 18 20 20 18 18 18 18 21 23 24 22 20 23 27 28 29 30
0 2 3 5 7 10 9 10 11 11 10 9 10 14 14 16 17 11 6 4 4 8 11 8 6 5 5 7 11 10 8 7 6 9 10 8 8 9 9 9 9 9 10 12 13 12 12 11 12 13 13 16 19 21 22 22 23 23 22 23 23 23 24 23 23 24 22 22 22 20 20 21 19 19 18 20 23 25 24 21 19 21 23 25 27 26
1 3 6 8 9 9 10 12 14 14 13 12 14 16 15 16 18 11 4 4 5 6 6 5 7 10 6 8 12 8 6 7 5 6 8 8 8 9 8 9 9 7 9 12 12 12 12 12 12 14 14 16 19 22 23 22 22 23 22 22 23 23 23 23 22 23 22 22 22 21 20 20 20 19 19 22 24 24 22 19 19 21 21 23 25 24
2 2 6 10 13 12 13 15 17 17 16 16 16 17 16 17 17 11 5 6 6 5 2 4 8 9 5 5 7 6 7 7 7 7 7 5 7 8 7 10 11 10 11 12 12 13 14 13 13 13 13 15 20 22 22 23 23 23 22 21 22 22 23 22 22 22 22 21 21 21 20 20 20 20 20 22 23 22 21 19 21 23 22 22 24 24
2 3 4 8 14 14 13 15 18 18 17 16 15 15 16 17 15 11 7 4 1 1 3 11 14 11 7 7 8 7 6 7 3 4 8 7 8 9 10 11 13 13 13 14 14 14 13 13 13 13 13 15 20 22 22 22 22 22 22 21 21 23 24 23 22 22 21 20 20 20 21 21 21 21 21 23 24 23 22 20 20 21 21 22 24 25
2 3 6 9 12 12 10 11 16 19 17 16 16 17 17 15 14 11 5 4 9 6 7 14 16 12 8 6 8 9 9 8 3 1 7 10 10 11 11 11 12 13 14 15 14 13 13 13 13 12 13 14 18 21 20 20 21 22 22 21 21 23 23 22 22 22 21 20 20 21 21 20 21 22 22 24 24 23 21 20 21 21 21 23 24 24
2 2 7 7 6 8 10 12 15 18 17 17 18 18 17 15 15 11 5 5 7 6 8 13 14 11 7 7 8 10 10 10 2 5 9 11 11 11 11 11 12 13 14 14 14 14 13 13 13 13 13 14 18 21 19 19 21 22 21 22 22 23 22 22 21 21 21 21 21 21 21 20 21 22 23 23 22 21 21 21 22 22 22 23 23 21
3 1 5 4 2 5 11 14 16 18 17 16 16 17 16 15 14 7 6 4 2 4 6 8 9 7 5 6 8 10 12 13 9 6 1 5 9 11 11 12 13 13 14 14 13 13 14 14 14 14 13 14 18 19 18 19 22 21 20 21 23 23 22 22 22 22 21 21 21 21 22 21 21 22 23 23 22 20 20 21 23 23 22 21 21 21
1 2 3 2 2 6 11 15 17 15 13 11 12 14 15 13 11 9 9 6 7 6 4 5 6 6 5 6 7 9 11 10 7 7 7 3 3 8 9 11 12 11 12 13 13 13 13 12 11 12 14 16 18 20 20 20 20 19 19 20 21 22 22 21 22 23 22 21 22 22 22 22 22 23 22 21 21 21 21 22 22 23 22 21 21 21
2 1 1 2 2 6 9 13 14 11 8 5 4 8 13 15 11 9 10 9 9 7 6 6 5 6 7 6 5 7 8 7 4 4 6 7 4 3 8 9 9 8 8 9 11 12 11 10 11 13 14 13 14 15 16 19 20 19 19 21 21 21 21 21 21 22 22 22 22 23 22 22 22 22 22 21 22 22 22 22 22 23 23 21 21 21
4 3 2 1 1 4 6 7 9 8 5 3 3 3 9 11 8 12 13 12 12 8 8 8 6 6 8 6 4 6 7 7 6 7 10 11 8 1 6 8 8 7 7 7 8 10 10 10 10 10 11 14 14 11 10 14 17 18 19 21 21 20 20 21 21 21 22 22 22 22 22 22 22 22 22 22 22 22 22 22 23 23 23 22 22 21
4 3 2 0 2 2 4 5 7 4 1 2 3 3 4 3 10 13 11 12 13 10 7 7 5 5 8 8 5 5 5 5 6 8 11 13 12 8 6 6 7 7 6 5 6 8 8 9 12 14 16 20 22 18 16 13 12 14 20 22 21 21 20 21 21 21 22 22 21 21 22 22 22 22 23 22 22 22 22 22 23 24 23 23 22 21
4 2 2 1 2 3 3 3 4 4 1 1 2 1 3 3 4 6 7 8 12 10 9 8 6 6 8 9 5 3 3 2 3 6 9 11 13 13 12 9 7 6 5 5 6 8 10 14 19 20 18 20 22 20 21 16 10 10 19 22 20 21 20 19 19 20 21 21 21 22 22 22 22 22 23 23 23 23 23 23 24 25 24 24 22 21
2 0 2 2 2 3 3 4 3 3 3 0 1 2 4 4 3 3 8 6 9 11 10 8 7 6 5 8 8 7 5 3 1 4 7 9 9 10 12 12 9 6 5 6 7 9 12 17 19 19 17 18 19 21 24 23 14 12 16 19 19 20 19 18 18 19 20 20 21 22 22 22 22 22 23 23 22 22 23 25 26 26 26 25 24 22
2 3 3 3 3 4 3 5 3 3 2 1 2 1 2 3 2 2 5 4 7 10 8 7 7 6 4 4 3 3 4 2 3 3 4 6 7 7 9 9 9 9 7 6 7 8 14 18 18 18 17 15 15 16 21 26 22 16 15 17 18 18 17 16 17 19 19 19 20 21 21 21 23 23 23 23 22 22 24 25 27 29 28 27 26 24
2 2 2 4 5 4 2 4 2 2 2 3 3 1 3 3 3 1 3 3 5 7 7 7 7 6 5 4 2 2 3 3 4 3 3 6 5 6 7 7 7 9 9 10 10 10 15 20 18 16 15 13 12 12 14 20 21 18 16 16 15 15 15 15 16 16 16 16 19 20 19 21 23 24 24 23 22 23 25 27 28 30 30 29 27 26
0 1 1 2 4 2 3 5 2 2 2 4 6 5 4 2 2 2 3 1 4 6 7 8 8 7 7 6 5 4 5 5 5 4 5 8 7 5 5 6 8 10 11 13 15 15 14 16 16 13 11 11 10 9 9 11 13 13 15 16 13 12 14 16 17 16 15 15 17 16 16 19 23 25 24 23 23 24 26 28 31 32 32 29 27 26
1 1 1 1 3 3 2 3 3 4 2 5 6 6 5 1 2 3 2 2 4 6 7 9 10 8 7 9 7 6 6 6 6 6 6 7 7 5 4 5 7 9 11 14 16 18 17 14 13 11 8 7 8 11 13 11 8 9 13 15 14 15 17 18 17 17 17 16 15 15 15 18 22 24 23 23 24 25 26 29 31 32 32 30 28 27
0 0 2 2 2 0 2 2 3 3 3 6 5 3 6 3 2 3 4 4 5 7 7 9 9 7 5 7 6 5 6 7 6 7 7 6 6 6 6 6 7 7 9 10 11 11 10 11 14 16 13 10 8 8 9 8 7 10 12 13 15 18 20 20 19 18 18 17 16 16 16 18 22 24 24 25 27 28 30 32 32 32 32 31 30 30
1 1 2 1 2 1 2 2 1 1 3 5 4 4 5 5 4 4 6 6 6 6 6 7 8 8 5 5 5 4 7 7 7 8 7 6 7 7 7 7 7 7 8 8 8 7 7 9 13 17 18 17 13 10 8 7 7 7 6 10 16 19 18 20 20 19 18 17 16 17 17 18 21 23 24 26 27 28 30 31 31 31 30 29 29 28
3 3 3 2 0 2 4 3 1 2 3 5 7 7 7 7 7 7 8 8 6 6 6 6 7 8 7 5 5 6 6 7 8 9 9 8 7 7 6 7 7 6 8 8 8 8 9 12 14 14 16 17 16 14 12 11 11 8 5 7 14 16 15 16 16 16 16 15 15 17 18 17 17 16 18 21 23 25 27 27 27 26 25 25 26 24
3 2 1 2 3 4 5 4 2 5 8 8 8 8 8 8 8 9 10 9 8 7 6 5 6 8 9 6 6 7 7 7 9 10 10 9 8 8 7 7 7 7 9 10 9 9 10 12 12 12 13 14 14 13 11 11 12 11 7 6 9 10 11 13 14 15 16 16 16 16 16 15 13 12 13 16 20 23 25 25 24 23 22 23 23 21
5 3 2 3 4 2 3 5 5 7 10 11 10 10 10 10 9 9 10 9 8 7 7 7 7 7 9 9 7 7 8 8 9 9 9 8 9 8 8 7 8 9 9 9 8 9 10 10 10 10 11 11 11 10 10 11 12 11 8 7 9 9 10 14 16 17 18 17 15 14 13 13 12 12 12 14 16 20 22 22 22 21 20 22 23 22
3 3 3 6 7 4 4 5 6 8 10 10 9 9 8 9 11 11 10 10 10 9 8 9 9 7 8 9 9 7 8 9 8 9 8 8 8 8 7 7 7 8 9 9 10 10 10 9 9 9 9 9 9 8 9 10 10 9 8 7 8 8 9 13 16 16 15 15 14 13 13 14 15 15 15 15 16 17 18 18 18 18 17 19 21 23
2 2 3 6 7 5 4 3 4 9 11 11 10 9 9 9 10 10 10 10 11 11 9 9 9 7 6 7 9 8 8 8 8 8 8 7 7 7 7 7 9 9 9 10 11 11 10 9 9 9 10 10 10 9 9 9 8 7 7 6 7 8 10 12 14 13 12 13 13 13 14 16 16 16 16 17 17 17 16 15 17 17 16 17 20 22
3 3 3 4 4 4 3 3 2 5 8 8 9 11 11 10 10 10 9 9 11 11 9 9 9 7 5 6 6 7 7 8 8 8 8 7 7 7 7 8 9 10 9 10 11 12 11 10 10 10 10 10 11 10 8 7 7 6 6 6 6 8 11 13 14 14 14 13 13 15 17 18 16 17 19 20 20 19 17 16 16 17 17 17 18 21
3 2 2 3 4 4 1 3 1 5 8 8 10 11 11 10 9 10 9 9 9 10 9 9 9 8 6 6 5 5 6 6 6 7 8 7 7 8 8 8 8 9 9 10 11 12 11 11 10 10 9 9 9 9 8 8 8 7 7 6 6 7 9 10 12 14 13 12 13 16 19 19 18 19 21 22 22 22 22 20 18 17 17 18 19 20
Wind_Direction
204 223 218 220 223 218 217 220 224 232 228 213 208 210 210 218 221 208 215 213 193 194 206 213 224 217 214 223 233 239 212 195 202 200 206 213 206 201 210 201 160 157 165 155 152 157 166 180 185 186 190 191 187 178 166 160 162 166 168 168 171 177 179 182 186 188 189 186 188 188 185 187 190 190 192 192 191 192 192 194 197 194 193 196 196 196
206 223 226 221 226 225 220 220 225 233 235 230 218 211 208 211 224 217 211 213 203 199 203 207 219 222 212 213 227 241 222 197 204 204 201 208 208 200 206 206 170 153 151 146 149 156 166 182 186 180 179 178 172 168 167 162 161 167 168 165 172 179 181 184 187 189 192 191 190 190 187 188 191 190 189 190 193 195 194 194 194 192 193 196 198 197
221 221 228 224 225 230 225 217 220 229 233 239 238 225 217 204 212 225 212 207 209 202 200 204 211 221 216 209 218 233 231 203 200 208 205 204 207 200 201 206 174 150 143 148 155 157 170 182 175 166 168 171 167 159 164 169 164 168 173 171 174 179 182 186 190 192 194 193 192 192 189 188 190 191 190 192 196 197 195 193 192 192 192 194 196 195
233 222 223 226 227 226 226 216 210 223 230 234 242 233 228 211 201 221 209 201 211 201 194 207 207 219 219 209 214 222 226 215 197 204 212 206 205 200 197 201 175 151 143 150 158 161 171 176 166 161 162 166 168 160 163 174 170 170 176 175 175 178 181 188 194 195 195 194 192 191 192 190 190 192 192 196 198 197 198 193 191 192 192 193 192 194
237 233 216 216 229 226 222 219 208 211 223 227 235 233 231 219 204 215 206 194 209 198 189 210 208 211 219 212 211 212 217 221 204 198 210 208 202 199 193 197 180 151 144 150 159 163 167 170 169 167 161 161 168 165 168 178 178 176 177 173 172 176 182 191 196 196 193 192 191 189 191 192 193 193 190 195 196 197 201 194 190 192 193 195 189 191
234 241 225 206 219 227 221 221 210 206 213 222 230 232 236 229 208 212 209 189 205 201 183 207 221 202 212 214 211 203 205 218 213 199 206 205 200 202 194 192 179 148 146 152 156 162 166 170 173 171 166 165 168 172 176 181 181 179 175 171 171 178 186 193 195 195 192 190 188 189 190 191 193 191 190 195 194 195 199 195 194 195 194 194 187 187
229 235 239 216 208 220 223 221 214 208 210 216 221 225 235 239 218 211 214 198 201 207 180 199 229 214 201 210 209 201 198 208 214 205 203 204 200 202 197 191 179 150 149 153 154 162 167 169 174 173 173 173 172 176 180 180 179 176 172 172 175 180 188 194 193 193 192 188 188 191 193 195 196 193 193 197 197 197 197 193 197 197 192 191 186 184
222 225 237 230 209 211 219 220 214 209 211 214 211 217 228 241 235 213 213 209 200 207 193 195 215 234 214 203 200 201 201 203 208 206 201 200 199 200 198 194 181 157 154 157 156 163 167 169 174 175 177 178 176 176 178 178 176 172 171 175 178 182 188 193 191 190 191 189 188 191 195 200 202 200 198 198 197 198 194 189 195 197 192 191 187 183
220 222 228 230 219 209 211 215 214 211 215 215 208 213 221 237 247 225 212 215 199 202 215 198 199 225 235 203 192 198 204 203 203 204 203 198 196 199 199 196 182 160 156 159 160 165 167 168 171 172 173 177 176 174 176 177 174 171 173 176 179 183 188 191 189 188 190 191 191 193 199 205 204 203 203 199 197 195 187 181 185 191 190 189 187 184
229 222 222 228 226 213 209 211 215 214 214 216 212 208 213 232 246 233 218 216 200 200 222 206 193 207 236 214 194 194 202 205 199 200 205 201 195 196 197 194 184 165 158 159 163 167 166 164 165 165 168 172 173 174 175 175 173 173 174 176 179 184 185 187 189 187 187 191 194 196 204 210 207 204 204 200 197 191 182 179 182 186 186 184 183 184
252 242 228 224 225 223 215 209 215 218 213 215 214 204 207 227 237 229 220 218 211 208 216 212 198 197 222 221 205 197 195 200 199 194 199 202 196 191 192 192 187 177 165 163 166 168 163 161 159 157 163 168 166 170 175 174 174 173 175 177 179 182 181 182 186 186 188 194 199 201 207 214 210 205 204 199 193 185 176 175 178 178 176 176 180 181
249 254 239 220 220 230 225 211 211 216 213 212 214 200 197 213 215 218 224 220 225 217 210 218 207 194 208 225 208 201 192 193 201 195 191 197 196 187 188 192 190 184 173 165 168 167 160 156 153 152 161 165 162 168 176 176 173 172 175 177 177 177 178 180 183 186 191 198 203 205 209 215 214 208 205 198 191 186 176 172 173 163 155 164 172 172
230 242 255 245 221 221 227 215 205 206 207 211 211 196 188 192 192 204 216 213 222 217 205 222 221 201 205 226 214 207 197 193 200 196 189 195 194 184 187 190 187 185 176 168 170 169 162 155 148 153 165 166 164 171 177 175 172 171 173 174 173 174 174 176 183 189 194 199 204 208 211 216 217 215 208 197 195 191 177 179 180 157 146 167 177 174
206 217 247 252 219 209 226 219 198 197 202 206 206 193 186 188 189 200 209 209 213 216 210 218 227 215 200 217 226 223 200 185 193 194 185 190 192 184 184 184 181 182 176 171 176 171 164 162 155 160 168 166 167 172 174 171 171 170 171 171 171 174 177 179 187 193 196 200 203 207 210 213 214 214 205 196 201 194 180 191 186 152 151 174 183 177
202 196 227 240 206 184 212 224 207 199 199 203 206 201 195 194 195 200 205 204 201 210 218 216 222 217 190 191 221 237 212 174 184 188 176 182 192 182 176 179 180 182 176 171 177 171 161 161 160 162 166 165 166 169 168 167 169 169 169 170 170 172 180 188 193 194 195 199 203 206 209 211 210 208 199 194 200 185 167 176 178 162 163 175 180 173
213 197 207 224 205 177 197 216 208 199 194 203 211 203 199 200 195 201 218 218 207 209 218 218 217 210 198 195 203 226 282 186 180 180 175 177 186 176 171 183 183 183 181 174 177 173 156 155 158 160 164 164 163 163 163 165 169 170 169 171 173 176 185 192 193 193 195 200 203 206 208 207 204 199 193 189 188 174 159 153 154 159 164 172 175 168
208 199 198 204 200 191 198 206 212 220 203 197 210 206 202 204 194 191 219 220 221 218 211 215 213 190 199 241 201 182 254 203 172 172 178 174 178 176 174 187 184 181 187 178 174 170 155 153 157 156 159 162 161 161 163 165 169 171 170 171 175 182 189 192 191 193 198 200 204 207 204 200 197 193 187 180 178 177 169 153 144 145 153 168 174 171
219 208 193 191 192 195 201 206 220 238 225 194 202 204 202 210 206 200 209 206 212 218 207 209 212 191 184 228 200 167 174 186 163 174 183 168 173 180 176 183 183 182 188 177 169 165 155 153 153 152 156 159 162 163 163 165 167 170 173 176 180 186 190 190 191 195 198 201 207 208 203 198 193 189 184 178 177 178 171 156 148 147 155 167 172 172
258 244 194 190 191 187 197 207 213 230 232 222 212 204 204 220 215 200 206 201 200 207 210 202 203 207 198 188 176 168 166 167 173 186 183 166 171 180 174 179 183 183 185 171 163 160 150 147 147 149 154 158 163 163 160 160 163 169 176 180 184 190 193 191 193 196 198 204 207 205 201 196 190 187 182 179 180 177 169 160 155 152 156 163 167 170
268 260 197 195 192 183 192 206 200 210 228 239 239 218 215 238 219 201 215 212 198 197 211 199 188 210 219 176 166 174 164 166 187 192 176 164 168 175 174 179 185 180 175 167 159 149 143 144 147 151 155 159 162 160 157 159 167 175 180 182 186 192 193 194 196 197 199 204 205 203 198 191 186 185 179 177 180 176 169 165 159 154 155 158 162 167
239 204 214 203 192 186 189 198 203 204 208 226 248 226 209 221 222 210 218 220 206 198 200 196 182 208 229 179 171 179 167 169 190 197 177 165 168 175 174 175 181 173 166 164 150 136 139 142 145 150 154 159 160 157 156 162 171 180 185 185 188 191 191 194 196 197 199 200 200 201 197 192 189 186 177 174 177 174 167 165 161 157 159 163 167 169
215 199 244 228 191 189 189 186 202 211 202 202 226 220 202 205 216 208 209 215 210 206 201 192 182 201 225 210 184 179 170 175 190 195 187 175 173 172 169 168 169 162 158 155 139 133 140 142 141 145 151 157 160 157 157 164 173 181 186 187 186 188 191 195 195 195 197 196 195 194 189 186 184 180 174 169 171 172 167 164 162 161 164 170 174 175
213 196 245 260 211 196 194 187 195 206 205 201 208 214 209 213 218 206 204 210 203 206 200 193 200 197 203 214 195 162 165 180 189 193 195 186 173 162 155 154 149 144 145 139 129 133 140 141 142 146 153 159 162 160 160 167 176 181 184 183 180 183 190 194 192 191 193 192 190 189 185 179 172 167 166 166 171 174 171 168 167 167 167 168 171 176
204 187 217 266 239 206 198 190 194 204 204 200 202 213 224 231 225 217 222 218 211 214 193 181 232 190 172 193 180 140 166 184 182 185 191 182 161 150 150 149 142 138 133 122 117 126 138 142 144 150 158 163 163 163 166 171 178 181 181 180 179 183 187 190 187 187 188 186 185 188 186 180 168 162 161 163 169 173 173 173 171 169 168 167 169 174
198 194 197 225 217 204 196 184 189 203 203 198 201 211 224 229 223 224 232 217 218 220 193 176 214 169 137 155 140 131 153 166 168 175 178 171 158 155 155 152 149 144 132 124 121 126 137 143 149 158 166 168 165 165 170 174 177 179 177 176 182 184 182 184 184 183 183 182 182 183 182 179 170 163 164 164 163 165 171 176 174 170 170 170 170 171
265 177 201 220 205 196 193 183 183 193 200 199 197 202 212 221 219 219 231 227 230 221 201 189 183 143 89 80 93 102 113 114 137 155 145 136 131 132 136 134 137 140 136 135 134 138 144 148 157 164 167 169 165 165 173 174 175 178 173 172 181 183 178 179 182 181 180 181 180 176 173 174 171 166 168 168 164 164 168 173 173 170 174 177 174 174
198 189 225 239 229 206 196 191 184 185 192 192 193 198 203 214 218 213 214 232 231 228 222 198 158 149 142 115 112 128 149 129 115 104 101 106 107 106 113 119 125 137 139 140 143 148 154 157 163 166 166 167 164 168 174 174 175 177 171 169 179 181 176 176 178 177 176 177 176 171 168 170 169 168 170 172 172 171 171 174 177 178 184 186 181 180
246 252 235 241 252 243 212 194 186 187 194 191 192 199 200 207 213 208 220 243 240 252 290 73 102 118 121 98 106 149 169 143 136 129 114 108 115 118 127 132 140 150 149 149 153 156 163 168 168 167 165 164 165 168 174 175 176 174 168 171 178 176 173 175 173 171 170 170 171 170 168 167 166 168 170 171 171 171 173 179 183 186 189 188 184 183
271 291 275 257 258 250 223 200 188 189 195 190 191 204 206 208 211 211 239 266 167 213 88 79 73 71 54 27 38 55 80 83 82 136 133 133 136 136 144 149 153 158 158 160 163 164 170 172 169 169 165 164 165 167 170 173 171 167 167 174 177 172 171 173 170 166 164 166 170 170 167 163 162 165 167 167 166 167 172 179 182 185 187 184 181 180
341 294 294 271 246 232 235 227 201 193 194 186 190 207 207 206 210 210 210 93 96 107 99 87 79 70 53 28 32 37 58 73 39 222 143 142 148 145 149 156 159 163 165 166 166 168 172 169 167 167 163 163 166 165 168 170 165 163 169 174 171 169 170 167 163 163 165 166 168 168 165 161 161 163 165 167 170 172 173 174 176 179 182 181 179 176
84 279 290 282 241 222 246 249 217 198 196 189 191 201 200 202 211 204 163 110 122 125 99 86 82 71 43 28 36 28 37 54 21 216 153 140 151 150 152 160 164 168 169 167 168 167 168 167 167 169 168 167 168 166 167 165 161 165 172 171 168 167 166 164 161 163 167 166 164 164 164 162 163 164 165 168 173 174 170 169 173 176 177 179 180 175
156 290 295 299 289 246 243 237 216 199 198 195 192 197 199 204 206 174 99 65 70 100 104 89 74 64 30 23 44 42 43 42 8 319 65 133 153 150 156 165 165 168 170 170 169 166 168 170 168 170 170 167 167 166 163 159 160 167 171 168 167 164 161 164 165 164 166 165 161 162 163 162 162 163 165 167 167 166 165 167 172 174 172 175 180 176
108 10 320 342 309 257 233 218 206 197 197 195 196 199 199 202 194 150 109 75 43 38 66 72 59 65 54 37 53 58 60 61 28 344 345 334 167 148 157 164 159 161 164 164 163 164 169 168 162 167 170 167 166 163 158 157 160 166 168 164 163 161 160 163 165 162 162 163 160 159 160 160 160 160 162 165 163 162 164 164 167 170 167 168 174 174
2 344 346 20 295 266 243 214 195 190 190 180 195 207 202 205 194 143 107 84 64 48 60 65 46 54 63 55 68 76 72 75 65 19 7 347 315 167 148 144 143 145 146 151 159 165 168 163 162 167 163 155 156 153 152 158 161 163 168 166 160 157 158 160 161 161 161 161 159 157 159 162 162 161 160 161 160 159 160 161 163 167 167 167 170 169
318 326 16 70 240 297 292 235 188 180 186 135 45 273 222 201 145 96 75 64 62 54 60 71 48 39 66 72 72 92 102 93 60 29 18 4 345 29 127 121 121 124 133 150 160 161 162 163 160 145 124 126 139 143 147 164 170 168 167 164 156 152 156 160 161 162 162 161 158 156 160 166 166 163 160 159 160 159 158 160 162 164 167 169 169 168
299 322 4 259 237 306 295 227 176 152 108 90 88 304 270 142 103 91 71 51 53 46 41 66 56 30 69 86 65 54 81 92 65 36 20 11 6 20 59 87 99 111 136 159 157 155 155 146 132 123 127 141 148 153 159 175 195 176 155 153 154 153 158 163 164 165 163 160 159 158 163 169 169 166 162 160 161 162 161 162 162 163 166 167 166 164
288 314 343 281 226 224 212 180 131 109 53 48 99 19 23 68 84 104 103 62 47 37 17 31 42 27 64 99 116 86 64 47 51 41 24 14 15 26 35 38 56 97 122 121 126 137 129 122 124 126 136 143 144 153 163 173 210 191 152 149 156 156 160 166 166 165 164 161 162 164 168 171 170 168 165 161 162 164 163 162 160 160 164 167 167 165
252 199 312 288 262 255 196 133 106 135 159 209 355 18 42 44 11 82 112 85 44 34 13 14 32 25 59 111 144 159 158 168 94 47 27 19 16 28 40 35 32 54 92 111 127 131 119 117 124 128 136 145 151 164 166 160 176 193 160 149 155 157 162 169 165 162 162 162 163 167 171 172 169 166 163 161 163 165 162 160 160 161 165 168 169 167
226 181 227 252 274 276 183 142 140 145 130 311 263 254 23 26 343 61 97 76 38 37 16 7 25 17 24 80 126 175 191 170 98 61 40 37 20 25 46 43 36 42 53 79 104 121 122 120 125 135 147 154 154 164 164 157 163 179 164 153 158 159 162 167 163 159 162 166 168 171 173 170 165 163 162 163 166 165 160 159 161 164 167 167 167 166
269 186 228 257 270 271 148 121 116 110 75 321 285 303 8 345 290 218 116 73 36 40 24 13 26 26 17 27 50 38 27 69 98 85 73 74 49 33 46 46 48 56 55 59 69 92 122 128 130 136 148 157 153 157 166 162 163 169 161 154 157 155 154 157 155 153 155 160 166 170 170 166 163 161 162 166 168 165 163 163 164 166 169 167 164 165
59 131 238 281 295 321 99 108 116 112 70 319 318 353 357 299 241 170 147 71 37 51 38 20 25 30 29 37 57 66 61 77 102 100 90 90 77 58 58 56 61 65 56 53 60 67 88 118 134 138 143 151 144 133 141 154 164 167 157 149 146 143 143 144 146 147 145 147 152 154 154 158 162 162 162 166 167 164 164 168 170 172 173 169 164 164
5 43 66 350 325 348 72 107 126 110 50 310 305 349 6 304 173 122 108 59 54 69 61 41 34 28 36 52 62 81 93 92 94 91 85 86 85 82 83 83 80 75 62 58 64 64 64 79 103 111 117 123 117 120 135 151 172 171 154 146 144 144 145 143 143 146 147 149 153 153 151 157 163 164 163 166 167 165 166 172 176 176 174 171 167 165
342 245 87 47 334 309 125 118 134 119 9 316 288 347 22 39 136 127 105 83 61 66 69 54 34 14 33 69 73 86 96 86 78 81 75 70 77 78 76 78 78 79 80 74 70 70 71 79 86 93 104 114 120 133 139 146 179 185 168 153 144 144 150 152 149 149 152 157 163 166 166 168 170 172 174 175 177 175 173 175 177 176 174 172 169 166
1 302 119 115 287 278 99 82 100 135 18 16 57 85 69 79 106 102 93 82 58 56 64 53 29 6 17 75 82 78 88 84 74 73 67 57 61 63 66 72 69 75 98 106 104 107 111 104 101 108 118 124 132 143 138 140 171 181 162 146 142 143 150 155 156 158 160 160 161 165 170 172 172 174 176 178 180 178 175 175 176 176 175 173 170 168
23 17 88 113 209 47 74 81 173 152 94 64 72 89 96 99 95 84 82 79 67 59 54 44 32 10 6 49 76 62 67 78 77 74 71 65 61 55 56 63 65 73 90 99 111 120 110 96 96 107 112 114 120 130 135 144 150 138 112 131 141 144 152 156 155 156 156 148 144 151 160 165 166 169 174 177 176 175 173 175 177 178 177 173 172 170
33 17 51 113 120 86 65 62 63 83 88 82 78 80 80 77 79 81 81 76 70 65 57 50 44 20 6 21 67 75 70 73 79 81 79 74 67 55 49 52 54 62 71 76 85 98 98 92 91 93 93 94 100 107 112 121 129 126 120 120 119 125 144 151 145 141 141 139 140 146 153 157 159 165 174 178 178 178 178 179 179 179 176 173 172 172
35 24 16 90 111 104 59 57 56 64 73 76 76 76 73 69 69 75 83 86 80 68 56 52 50 30 11 12 37 73 84 80 81 85 83 80 77 66 56 58 55 54 57 61 71 85 91 87 82 77 78 80 85 95 100 102 107 110 110 106 99 102 121 132 130 128 130 136 145 152 156 161 164 166 172 176 179 181 181 181 182 181 177 175 174 170
14 1 31 68 72 77 82 78 77 77 73 70 70 70 70 72 71 70 79 91 90 79 64 58 54 35 12 7 12 38 67 74 79 84 83 84 86 80 73 75 71 67 66 62 60 68 77 79 77 77 77 75 75 82 84 85 91 100 104 106 108 109 116 123 124 122 123 130 141 149 155 163 165 163 165 169 171 173 175 177 180 179 176 176 172 164
335 359 64 78 76 76 64 38 65 82 74 66 66 66 62 64 66 66 69 78 83 81 73 71 72 57 26 12 5 13 42 61 69 79 82 80 82 82 81 79 75 71 70 68 63 63 68 73 72 70 68 65 64 67 67 68 76 86 93 103 114 121 129 133 131 128 128 131 138 147 153 156 158 159 162 163 160 159 159 164 170 169 164 166 170 165
24 28 56 86 86 73 35 322 342 79 74 61 59 61 61 59 58 60 61 64 71 74 69 73 82 80 62 42 19 8 26 44 56 73 81 80 79 80 78 77 75 70 66 67 66 63 59 58 59 61 61 56 55 57 59 63 68 74 84 95 105 113 124 131 131 131 134 137 143 152 153 151 154 159 161 159 154 147 141 142 152 155 150 152 160 164
43 11 40 81 89 92 170 245 223 83 80 69 57 53 57 58 56 55 51 51 62 70 69 70 73 69 62 58 44 21 15 26 45 63 74 77 78 79 77 73 71 72 72 72 70 65 56 49 49 55 56 53 54 57 56 56 56 58 68 78 88 105 119 129 130 129 133 139 147 154 156 155 155 156 156 155 152 146 137 130 129 133 136 141 147 153